K7PB Weather Reports


Display with metric or nautical units.
time (UTC)temp
F
wind
direction
speed
MPH
gust
MPH
rain 1hr
in
rain 24hr
in
rain mn
in
humidity
%
barometer
mb
20260505004546 66 45 3.0 12.0 0.00 0.00 0.00 37 998.1
20260505003051 67 5 2.0 8.0 0.00 0.00 0.00 35 998.2
20260505001533 68 76 2.0 13.0 0.00 0.00 0.00 32 998.3
20260505000035 69 57 4.0 18.0 0.00 0.00 0.00 32 998.4
20260504234532 69 53 7.0 18.0 0.00 0.00 0.00 35 998.6
20260504233035 68 61 6.0 14.0 0.00 0.00 0.00 37 999.0
20260504231531 65 84 5.0 13.0 0.00 0.00 0.00 41 999.0
20260504230031 63 80 3.0 7.0 0.00 0.00 0.00 44 999.1
20260504224530 64 157 3.0 7.0 0.00 0.00 0.00 43 999.2
20260504223037 63 137 3.0 11.0 0.00 0.00 0.00 44 998.9
20260504221528 65 148 5.0 19.0 0.00 0.00 0.00 42 998.7
20260504220031 69 190 5.0 11.0 0.00 0.00 0.00 32 998.4
20260504214527 71 150 2.0 6.0 0.00 0.00 0.00 27 998.2
20260504213029 72 264 2.0 6.0 0.00 0.00 0.00 24 998.1
20260504211534 73 312 0.0 7.0 0.00 0.00 0.00 24 998.2
20260504210024 74 223 2.0 7.0 0.00 0.00 0.00 26 998.3
20260504204522 76 24 0.0 3.0 0.00 0.00 0.00 23 998.5
20260504203020 74 30 1.0 4.0 0.00 0.00 0.00 24 998.5
20260504201518 75 277 0.0 5.0 0.00 0.00 0.00 24 998.7
20260504200021 74 257 0.0 7.0 0.00 0.00 0.00 26 998.9
20260504194517 76 296 0.0 11.0 0.00 0.00 0.00 24 999.0
20260504193018 78 9 1.0 9.0 0.00 0.00 0.00 22 999.1
20260504191513 78 251 1.0 6.0 0.00 0.00 0.00 22 999.3
20260504190010 78 293 0.0 9.0 0.00 0.00 0.00 21 999.5
20260504184508 77 279 1.0 7.0 0.00 0.00 0.00 25 999.6
20260504183009 76 199 3.0 7.0 0.00 0.00 0.00 26 999.7
20260504181504 75 39 1.0 7.0 0.00 0.00 0.00 25 1000.1
20260504180101 75 196 1.0 8.0 0.00 0.00 0.00 26 1000.3
20260504174559 74 312 1.0 7.0 0.00 0.00 0.00 27 1000.4
20260504173058 74 126 1.0 6.0 0.00 0.00 0.00 29 1000.5
20260504171553 73 207 0.0 5.0 0.00 0.00 0.00 28 1000.7
20260504081545 54 0.0 0.0 0.00 0.00 0.00 37 1001.7
20260504044544 59 0.0 0.0 0.00 0.00 0.00 36 1001.8
20260504043043 60 0.0 0.0 0.00 0.00 0.00 34 1001.9
20260504041536 61 0.0 0.0 0.00 0.00 0.00 31 1001.9
20260504040031 61 0.0 0.0 0.00 0.00 0.00 31 1001.8
20260504034526 62 0.0 0.0 0.00 0.00 0.00 29 1001.7
20260504033022 61 0.0 0.0 0.00 0.00 0.00 27 1001.7
20260504031516 60 0.0 0.0 0.00 0.00 0.00 32 1001.6
20260504030014 61 0.0 0.0 0.00 0.00 0.00 32 1001.6
20260504024509 63 0.0 0.0 0.00 0.00 0.00 31 1001.6
20260504023004 64 0.0 0.0 0.00 0.00 0.00 29 1001.6
20260504021600 66 0.0 0.0 0.00 0.00 0.00 27 1001.5
20260504020109 68 313 0.0 0.0 0.00 0.00 0.00 24 1001.5
20260504014555 70 313 0.0 2.0 0.00 0.00 0.00 20 1001.6
20260504013052 71 301 0.0 0.0 0.00 0.00 0.00 19 1001.7
20260504011552 72 301 0.0 0.0 0.00 0.00 0.00 18 1001.8
20260504010053 73 301 0.0 1.0 0.00 0.00 0.00 17 1001.9